Find Starlink 5653

NORAD ID: 55345 Int'l Des: 2023-013 Owner: SPXS Country: US Constellation: starlink operational
LEOCIRCULAR

实时位置

正在加载3D地球...

关于 Starlink 5653

正在加载描述...

即将过境

Passes for default location (London). Set your location on the main map for personalized predictions.

高度历史

Loading altitude history...

两行轨道根数

1 55345U 23013Q 26123.64437498 .00000857 00000-0 40657-4 0 9996
2 55345 43.0042 338.6945 0001174 268.6288 91.4429 15.27576599180248
Epoch: May 3, 2026 • Age: 20 hours

当前状态

高度 493.7 km
速度 7.62 km/s
星下点 -38.36°S, 119.69°W
发射日期 Jan 26, 2023
运行时间 3.2 years
类型 internet

技术详情

分类 Payload
质量 305.00 kg
干质量 290.00 kg
总质量 305.00 kg
长度 0.20 m
直径 2.80 m
跨度 9.00 m
形状 Box + pan
制造商 SPXS
平台类型 Starlink
阶段状态 In Orbit
所有者/国家 SPXS/US

Most Searched